DW3212 Weather Reports


time (UTC)temp
C
wind
direction
speed
KPH
gust
KPH
rain 1hr
cm
rain 24hr
cm
rain mn
cm
humidity
%
barometer
mb
20260503221601 6 0.0 0.0 0.00 0.00 0.00 45 1006.5
20260503220059 6 0.0 0.0 0.00 0.00 0.00 44 1006.5
20260503214556 7 0.0 0.0 0.00 0.00 0.00 43 1006.6
20260503213057 7 0.0 0.0 0.00 0.00 0.00 45 1006.6
20260503211559 6 0.0 0.0 0.00 0.00 0.00 46 1006.5
20260503210054 6 0.0 0.0 0.00 0.00 0.00 46 1006.5
20260503204557 6 0.0 0.0 0.00 0.00 0.00 45 1006.4
20260503203058 6 0.0 0.0 0.00 0.00 0.00 47 1006.5
20260503201554 6 0.0 0.0 0.00 0.00 0.00 45 1006.6
20260503200057 7 0.0 0.0 0.00 0.00 0.00 44 1006.6
20260503194559 6 0.0 0.0 0.00 0.00 0.00 44 1006.6
20260503193056 6 0.0 0.0 0.00 0.00 0.00 44 1006.7
20260503191555 6 0.0 0.0 0.00 0.00 0.00 44 1007.0
20260503190056 6 0.0 0.0 0.00 0.00 0.00 47 1006.9
20260503184558 6 0.0 0.0 0.00 0.00 0.00 44 1006.8
20260503183058 6 0.0 0.0 0.00 0.00 0.00 48 1006.8
20260503181600 7 0.0 0.0 0.00 0.00 0.00 48 1006.8
20260503180107 7 0.0 0.0 0.00 0.00 0.00 51 1006.8
20260503174559 5 0.0 0.0 0.00 0.00 0.00 52 1006.8
20260503173107 6 0.0 0.0 0.00 0.00 0.00 49 1006.6
20260503171553 6 0.0 0.0 0.00 0.00 0.00 46 1006.6
20260503140107 3 0.0 0.0 0.00 0.00 0.00 64 1007.3
20260503110110 1 0.0 0.0 0.00 0.08 0.00 86 1006.9
20260503081556 1 0.0 0.0 0.00 0.13 0.00 79 1007.2
20260503071612 1 0.0 0.0 0.00 0.20 0.00 75 1007.8
20260503060118 1 0.0 0.0 0.00 0.23 0.00 70 1008.2
20260503054601 1 0.0 0.0 0.00 0.28 0.00 70 1008.3
20260503053059 1 0.0 0.0 0.00 0.28 0.00 69 1008.8
20260503051556 1 0.0 0.0 0.00 0.28 0.00 68 1008.8
20260503050056 1 0.0 0.0 0.00 0.28 0.00 69 1009.1
20260503044600 1 0.0 0.0 0.00 0.33 0.00 70 1009.2
20260503043105 1 0.0 0.0 0.00 0.33 0.00 69 1009.3
20260503041558 1 0.0 0.0 0.00 0.33 0.00 67 1009.6
20260503040118 1 0.0 0.0 0.00 0.33 0.00 69 1009.7
20260503034557 1 0.0 0.0 0.00 0.33 0.33 68 1009.9
20260503033058 1 0.0 0.0 0.00 0.33 0.33 66 1009.9
20260503031604 1 0.0 0.0 0.00 0.33 0.33 64 1009.9
20260503030056 1 0.0 0.0 0.00 0.33 0.33 64 1009.9
20260503024554 1 0.0 0.0 0.00 0.33 0.33 64 1010.0
20260503023056 1 0.0 0.0 0.00 0.33 0.33 61 1010.0
20260503021556 2 0.0 0.0 0.00 0.33 0.33 60 1010.1
20260503020055 2 0.0 0.0 0.00 0.33 0.33 62 1010.2
20260503014609 2 0.0 0.0 0.00 0.33 0.33 61 1010.3
20260503013058 2 0.0 0.0 0.00 0.33 0.33 62 1010.1
20260503011603 2 0.0 0.0 0.00 0.33 0.33 59 1010.3
20260503010054 2 0.0 0.0 0.00 0.33 0.33 56 1010.3
20260503004556 3 0.0 0.0 0.00 0.33 0.33 56 1010.2
20260503003054 3 0.0 0.0 0.00 0.33 0.33 56 1010.2
20260503001620 3 0.0 0.0 0.00 0.33 0.33 57 1010.1
20260503000121 3 0.0 0.0 0.00 0.33 0.33 55 1010.0
20260502234605 4 0.0 0.0 0.00 0.33 0.33 54 1009.9
20260502233055 5 0.0 0.0 0.00 0.33 0.33 54 1009.8
20260502231559 5 0.0 0.0 0.00 0.33 0.33 51 1009.7
20260502230056 5 0.0 0.0 0.00 0.33 0.33 51 1009.6
20260502224559 6 0.0 0.0 0.00 0.33 0.33 51 1009.4
20260502223055 6 0.0 0.0 0.00 0.33 0.33 50 1009.2